Goodland, KS

3:00 PM MDT on June 26, 2017 (GMT -0600)
Renner-Goodland Municipal

Weather History for KGLD - November, 2011

Change the Weather History Date:

Friday, November 4, 2011

  Actual Average Record
Temperature  
Mean Temperature 43 °F 44 °F  
Max Temperature 59 °F 58 °F 79 °F (1999)
Min Temperature 26 °F 31 °F 10 °F (1967)
Degree Days  
Heating Degree Days 22 21  
Month to date heating degree days 107 80  
Since 1 July heating degree days 576 620  
Cooling Degree Days 0 0  
Month to date cooling degree days 0 0  
Year to date cooling degree days 1116 941  
Moisture  
Dew Point 27 °F    
Average Humidity 61    
Maximum Humidity 81    
Minimum Humidity 40    
Precipitation  
Precipitation 0.00 in 0.04 in 0.40 in (1946)
Month to date precipitation 0.26 0.13  
Year to date precipitation 18.87 18.62  
Snow  
Snow 0.00 in 0.10 in - ()
Month to date snowfall 3.1 0.5  
Since 1 July snowfall 3.3 3.1  
Since 1 September snowfall 3.3 3.1  
Snow Depth T in    
Sea Level Pressure  
Sea Level Pressure 29.91 in    
Wind  
Wind Speed 16 mph (South)    
Max Wind Speed 25 mph    
Max Gust Speed 30 mph    
Visibility 10 miles    
Events      
T = Trace of Precipitation, MM = Missing Value Source: NWS Daily Summary

Daily Weather History Graph

Daily Weather History Graph

Search for Another Location

Airport or City:

Trip Planner

Search our weather history database for the weather conditions in past years. The results will help you decide how hot, cold, wet, or windy it might be!

Date:

Astronomy

Nov. 04, 2011 Rise Set
Actual Time 7:17 AM MDT 5:42 PM MDT
Civil Twilight 6:49 AM MDT 6:10 PM MDT
Nautical Twilight 6:18 AM MDT 6:42 PM MDT
Astronomical Twilight 5:46 AM MDT 7:13 PM MDT
Moon 2:33 PM MDT (11/4) 1:33 AM MDT (11/4)
Length of Visible Light 11h 20m
Length of Day
10h 24m
Waxing Gibbous, 70% of the Moon is Illuminated
Nov 4
Waxing Gibbous
Nov 10
Full
Nov 18
Last Quarter
Nov 24
New
Dec 2
First Quarter

Hourly Weather History & Observations

Time (MDT) Temp. Windchill Dew Point Humidity Pressure Visibility Wind Dir Wind Speed Gust Speed Precip Events Conditions
12:53 AM 30.0 °F 17.9 °F 21.0 °F 69% 30.09 in 10.0 mi South 18.4 mph - N/A   Clear
1:53 AM 28.4 °F 15.1 °F 19.4 °F 69% 30.01 in 10.0 mi South 20.7 mph - N/A   Clear
2:53 AM 28.9 °F 15.8 °F 21.0 °F 72% 30.01 in 10.0 mi SSE 20.7 mph 26.5 mph N/A   Clear
3:53 AM 28.9 °F 15.4 °F 21.0 °F 72% 29.99 in 10.0 mi South 21.9 mph 28.8 mph N/A   Clear
4:53 AM 28.0 °F 15.3 °F 21.0 °F 75% 30.00 in 10.0 mi South 18.4 mph - N/A   Clear
5:53 AM 27.0 °F 16.7 °F 21.0 °F 78% 30.02 in 10.0 mi South 11.5 mph - N/A   Clear
6:53 AM 27.0 °F 15.2 °F 21.0 °F 78% 29.99 in 10.0 mi South 15.0 mph - N/A   Clear
7:53 AM 28.0 °F 18.6 °F 21.9 °F 78% 30.01 in 10.0 mi South 10.4 mph 20.7 mph N/A   Clear
8:53 AM 32.0 °F 21.2 °F 24.1 °F 73% 30.02 in 10.0 mi South 16.1 mph 20.7 mph N/A   Clear
9:53 AM 35.1 °F 25.9 °F 26.1 °F 70% 30.00 in 10.0 mi South 13.8 mph - N/A   Clear
10:53 AM 39.9 °F 31.8 °F 27.0 °F 60% 29.98 in 10.0 mi South 15.0 mph - N/A   Clear
11:53 AM 45.0 °F 38.2 °F 28.9 °F 53% 29.96 in 10.0 mi South 15.0 mph - N/A   Clear
12:53 PM 51.1 °F - 32.0 °F 48% 29.91 in 10.0 mi SSW 16.1 mph 19.6 mph N/A   Clear
1:53 PM 55.0 °F - 32.0 °F 42% 29.87 in 10.0 mi South 16.1 mph - N/A   Clear
2:53 PM 55.0 °F - 32.0 °F 42% 29.86 in 10.0 mi South 13.8 mph - N/A   Clear
3:53 PM 57.9 °F - 34.0 °F 41% 29.83 in 10.0 mi South 15.0 mph - N/A   Clear
4:53 PM 53.1 °F - 35.1 °F 50% 29.83 in 10.0 mi South 13.8 mph - N/A   Clear
5:53 PM 48.2 °F - 33.8 °F 58% 29.81 in 10.0 mi SSE 12.7 mph - N/A   Clear
6:53 PM 50.0 °F - 33.1 °F 52% 29.83 in 10.0 mi South 13.8 mph - N/A   Clear
7:53 PM 48.0 °F - 32.0 °F 54% 29.83 in 10.0 mi SSE 16.1 mph - N/A   Clear
8:53 PM 46.0 °F 39.0 °F 30.9 °F 56% 29.80 in 10.0 mi South 17.3 mph - N/A   Clear
9:53 PM 45.0 °F 38.2 °F 30.0 °F 56% 29.80 in 10.0 mi South 15.0 mph - N/A   Clear
10:53 PM 44.1 °F 37.4 °F 30.0 °F 58% 29.77 in 10.0 mi South 13.8 mph - N/A   Clear
11:53 PM 45.0 °F 38.2 °F 30.0 °F 56% 29.73 in 10.0 mi South 15.0 mph - N/A   Clear